Wind_Speed
7 7 7 8 7 5 5 6 2 4 1 2 3 4 6 4 4 3 2 1 1 5 5 5 6 7 8 9 11 12 13 13 15 21 20 20 20 20 21 21 24 26 30 32 36
8 8 7 6 8 6 5 7 3 4 4 3 3 5 7 5 4 4 3 2 5 6 5 5 5 6 6 9 11 13 14 15 17 22 20 20 20 21 21 24 27 30 32 35 40
12 8 9 6 8 8 7 6 7 3 6 4 5 7 9 6 5 5 3 5 5 5 3 4 5 6 8 11 13 14 15 18 20 21 21 21 21 21 23 26 29 31 33 38 44
15 12 10 9 7 9 9 7 8 6 6 6 7 9 10 8 5 4 5 6 5 4 2 4 5 7 9 12 14 16 17 19 19 20 20 20 21 22 25 27 29 32 37 43 47
22 16 12 11 9 9 10 10 8 9 6 8 10 10 10 9 7 6 6 5 4 2 2 4 7 9 11 14 16 18 18 20 19 19 20 19 21 22 25 27 30 35 40 45 50
22 23 17 12 13 10 11 11 10 9 8 8 10 10 10 10 8 8 8 5 3 1 2 5 7 10 12 15 17 19 20 21 20 20 19 20 22 24 26 30 34 38 43 49 54
17 22 23 18 14 14 13 12 11 10 10 9 10 11 9 8 9 9 8 5 3 1 3 6 9 11 14 15 18 19 21 22 21 21 19 20 23 26 29 32 35 41 48 54 56
19 16 21 23 18 16 16 14 12 11 11 11 11 11 10 9 10 10 8 5 3 3 5 8 10 12 13 16 19 19 20 21 21 19 18 20 24 27 29 31 38 45 53 58 58
19 17 17 21 22 19 18 16 14 12 12 14 12 12 11 11 12 11 8 6 3 4 7 9 10 11 13 17 17 18 19 20 19 17 17 20 24 26 28 34 42 48 54 58 58
19 19 16 18 21 21 20 19 16 14 13 16 14 13 11 13 14 11 9 6 4 5 7 9 9 11 15 16 16 18 20 20 19 16 18 19 24 24 29 37 43 48 54 57 58
18 19 19 17 19 20 20 21 19 17 14 16 16 15 13 14 15 12 9 7 5 6 7 7 8 11 14 14 16 20 21 21 19 17 18 20 22 24 31 37 43 47 53 55 51
18 19 20 19 18 19 20 21 21 19 16 16 18 17 16 16 16 14 10 7 5 6 7 6 7 11 10 13 17 22 23 22 19 18 19 19 20 25 31 38 41 48 52 56 38
19 19 20 20 19 17 21 21 23 21 18 17 18 18 18 18 18 15 12 9 6 6 6 5 7 8 9 13 19 24 25 24 19 18 19 17 19 25 30 37 43 47 51 55 28
20 19 19 21 22 21 21 22 23 24 21 18 19 19 20 20 20 17 13 11 8 6 6 4 6 5 9 14 20 25 26 25 20 19 20 17 19 24 30 36 45 47 51 50 25
23 19 19 20 23 23 21 23 23 23 23 22 20 21 22 22 21 19 15 13 10 7 5 3 3 4 9 15 20 23 26 26 20 19 21 18 18 25 32 36 44 47 51 50 27
22 22 19 21 24 24 24 22 26 25 25 22 21 21 23 25 24 21 18 14 12 9 6 3 2 3 8 13 18 23 26 26 21 19 22 18 21 27 31 38 43 47 51 50 28
23 24 21 22 24 25 26 26 25 26 24 26 23 21 23 26 27 24 20 17 14 11 7 5 3 2 6 10 15 22 26 29 26 20 23 19 20 27 31 37 42 47 50 51 30
23 25 25 23 25 26 27 30 28 25 27 26 23 25 23 27 28 26 22 20 16 12 9 7 5 2 4 8 13 19 24 29 29 24 23 22 21 25 31 36 43 48 49 50 32
26 27 26 25 25 28 29 30 27 25 28 27 24 23 25 26 29 29 25 22 18 15 12 9 7 5 3 5 11 15 21 26 30 27 22 23 20 23 29 35 43 45 47 46 40
26 27 26 26 26 29 31 29 29 27 27 29 27 24 24 26 30 30 27 25 21 17 14 12 10 8 4 2 7 13 18 22 27 31 27 23 19 22 28 33 40 42 45 44 44
28 28 27 27 28 29 29 27 30 31 28 28 28 27 26 26 30 32 30 28 25 20 16 15 13 12 8 4 4 10 15 19 24 28 29 26 22 21 26 31 36 40 44 46 45
31 31 29 27 29 28 27 28 31 36 33 31 31 30 29 30 28 32 31 31 28 24 19 17 16 15 11 8 4 7 12 16 21 25 28 27 23 20 24 29 33 39 44 48 50
30 34 33 29 28 28 27 31 35 36 37 36 35 33 31 31 33 30 32 33 31 28 22 20 19 18 16 12 8 7 10 14 17 22 27 29 26 20 21 25 30 38 41 46 48
33 36 33 31 29 26 27 31 36 38 38 39 37 35 33 33 34 35 31 33 34 32 27 23 21 21 19 15 13 10 10 12 15 19 23 27 26 22 18 21 27 33 37 42 46
36 35 32 30 29 28 30 31 34 39 42 39 38 33 35 34 36 37 35 33 35 34 32 26 23 24 23 20 17 14 12 12 14 16 19 24 25 23 19 19 23 28 33 38 43
37 36 33 31 30 31 30 30 34 38 42 45 44 37 36 37 38 38 39 38 36 36 34 30 25 26 25 23 21 17 16 15 14 15 16 20 23 21 20 16 19 23 28 33 39
35 36 37 32 32 33 29 29 34 40 43 45 47 49 40 38 41 39 41 40 39 37 37 33 28 27 26 26 23 19 19 17 16 15 14 17 20 21 20 17 15 19 23 28 34
Wind_Direction
315 309 305 317 328 329 307 285 305 303 274 227 213 229 242 244 274 290 289 296 101 119 102 94 75 52 30 24 19 9 4 0 354 345 337 333 331 335 334 331 328 323 319 317 314
312 306 299 304 313 313 299 283 267 294 278 243 229 235 258 266 272 274 267 223 137 120 112 85 65 44 27 20 11 1 354 350 344 345 338 337 335 336 333 329 326 322 322 319 317
300 304 296 289 300 302 294 279 272 272 283 263 239 243 249 251 253 249 220 156 130 117 95 65 42 29 15 7 359 352 349 345 338 340 337 337 334 334 331 329 326 325 321 318 319
279 292 297 288 281 292 291 281 270 252 268 269 246 244 251 250 244 225 174 156 126 115 71 42 23 15 1 355 351 347 344 340 335 333 333 334 331 332 331 329 324 322 321 322 322
275 274 282 289 273 277 282 283 269 258 240 261 258 254 256 251 239 200 184 161 131 115 29 10 7 358 352 348 345 342 338 336 333 331 331 332 330 331 331 326 324 325 324 324 322
275 270 271 277 283 264 272 275 273 254 246 245 258 259 256 250 218 197 186 167 150 139 352 354 352 348 344 342 341 339 335 336 334 331 332 332 332 332 333 330 330 328 326 324 325
281 270 267 268 275 273 263 268 269 256 246 238 251 256 252 237 213 200 186 183 189 264 331 342 348 346 346 345 341 340 338 338 336 333 335 333 333 333 337 335 332 329 328 328 329
279 277 267 264 265 273 265 264 266 263 245 239 239 248 253 232 213 208 192 202 236 293 325 339 342 347 353 346 344 346 343 341 336 337 335 335 336 337 340 336 334 334 331 329 330
278 275 271 260 262 263 268 261 263 261 244 242 233 241 242 233 217 209 204 214 248 300 322 329 341 351 349 348 353 351 346 344 338 340 334 336 337 343 340 340 339 336 333 330 333
275 275 270 261 256 256 262 260 259 257 248 240 237 237 230 227 218 211 208 222 248 293 317 327 345 350 349 356 1 360 349 345 344 342 339 343 342 346 346 344 343 339 335 331 337
279 272 272 266 254 250 251 258 255 254 252 242 242 236 228 222 216 217 216 226 254 293 315 332 350 354 356 5 15 10 357 351 349 347 346 349 347 351 352 348 345 348 339 335 340
287 274 268 264 256 248 243 251 250 249 253 246 242 235 228 216 216 216 221 233 261 300 324 338 355 357 6 17 18 13 4 356 353 351 352 354 351 357 354 350 352 349 342 341 343
295 277 270 267 258 251 243 243 249 247 243 244 237 236 228 218 215 215 221 233 256 298 319 344 357 360 13 18 18 14 5 359 356 355 355 358 354 0 352 352 355 354 345 346 347
300 287 273 265 260 249 243 244 245 247 247 242 237 234 229 220 214 217 223 235 250 287 315 334 352 5 15 18 19 17 7 1 358 356 357 358 1 359 353 353 356 355 348 350 349
294 291 275 266 260 253 244 245 244 243 246 243 237 232 228 223 215 217 221 232 245 271 291 303 339 10 11 17 21 18 11 5 1 357 357 356 358 356 355 355 358 358 352 351 352
282 287 276 261 260 258 247 242 248 240 242 246 240 232 229 224 216 215 219 228 244 262 272 267 289 349 8 15 21 22 17 9 5 357 358 358 354 358 1 360 1 0 357 353 357
276 280 277 264 256 254 253 243 248 246 239 242 243 235 229 222 221 216 218 227 240 256 257 249 252 300 2 13 20 22 21 16 12 2 359 356 359 2 6 5 4 4 2 356 1
270 274 279 269 256 252 252 248 242 246 241 238 244 240 233 224 220 222 219 226 237 249 254 236 241 264 345 12 21 23 20 17 12 6 358 358 1 4 8 9 8 8 7 358 3
271 271 273 273 259 253 251 251 245 243 243 238 237 244 237 226 222 223 224 225 234 244 251 234 227 234 316 9 21 21 22 19 19 10 1 359 0 3 8 10 12 12 13 5 3
270 267 271 270 263 253 251 251 246 243 242 240 236 236 241 231 223 224 226 229 233 240 248 237 230 229 261 328 18 19 16 17 16 13 6 358 357 6 11 12 16 16 16 14 7
265 263 267 266 263 255 252 250 247 242 243 244 239 233 233 236 230 225 226 231 234 235 242 238 231 234 242 251 348 9 10 14 14 13 5 3 358 3 10 12 19 17 12 14 17
263 264 265 265 263 262 251 245 244 244 241 246 240 232 230 229 233 230 228 233 235 235 237 238 228 229 236 238 278 347 358 4 10 12 10 1 1 358 7 10 15 17 15 10 16
265 262 261 263 266 264 252 242 242 242 239 242 246 234 230 229 230 230 230 231 236 240 236 238 231 232 234 241 252 304 338 351 2 9 8 5 3 358 3 9 12 14 16 15 17
263 261 257 261 267 262 252 245 241 242 239 241 241 238 231 232 230 228 232 231 235 238 238 236 234 234 235 243 250 276 310 334 348 1 5 6 2 4 2 5 9 13 15 18 18
265 258 254 261 265 261 252 246 245 242 240 239 238 239 233 233 233 232 228 233 233 236 239 238 232 235 239 241 249 264 286 313 331 347 360 3 3 4 6 360 6 12 13 19 20
260 256 253 256 259 260 257 253 245 245 240 236 238 242 239 233 234 232 232 230 233 234 240 242 235 234 238 243 247 257 275 295 313 328 347 358 3 7 9 4 3 9 13 16 23
258 256 253 254 256 259 258 249 245 244 241 239 238 240 240 238 236 233 234 234 232 235 236 239 241 237 236 243 249 251 265 280 295 309 329 346 359 6 9 11 5 6 11 14 21
Height
5877 5876 5875 5874 5873 5871 5871 5870 5868 5870 5869 5869 5869 5869 5869 5869 5869 5869 5869 5869 5868 5867 5867 5867 5866 5866 5865 5864 5862 5861 5859 5856 5853 5850 5847 5842 5839 5835 5831 5828 5825 5821 5817 5812 5806
5877 5875 5874 5873 5873 5871 5869 5870 5868 5870 5870 5869 5870 5869 5868 5869 5869 5869 5869 5869 5869 5868 5868 5868 5867 5866 5866 5864 5862 5859 5857 5854 5851 5848 5844 5840 5836 5832 5829 5825 5821 5817 5812 5806 5800
5876 5874 5873 5872 5871 5871 5869 5868 5869 5868 5870 5870 5869 5869 5868 5869 5869 5869 5869 5869 5869 5869 5869 5868 5868 5867 5865 5862 5860 5858 5855 5852 5849 5845 5841 5837 5834 5830 5826 5822 5817 5813 5808 5802 5795
5873 5873 5872 5871 5870 5870 5869 5868 5868 5868 5868 5869 5868 5868 5868 5868 5870 5868 5869 5869 5870 5870 5870 5869 5868 5866 5865 5862 5860 5857 5854 5851 5847 5843 5839 5836 5832 5828 5824 5820 5814 5809 5803 5795 5788
5870 5870 5870 5870 5869 5868 5867 5867 5866 5867 5867 5868 5868 5868 5869 5868 5869 5868 5869 5870 5870 5871 5870 5869 5867 5866 5864 5861 5859 5856 5853 5849 5845 5841 5837 5834 5830 5827 5822 5817 5812 5805 5798 5790 5781
5865 5866 5868 5867 5867 5866 5866 5866 5866 5866 5866 5866 5867 5867 5868 5869 5868 5868 5869 5870 5870 5871 5870 5869 5867 5865 5863 5861 5858 5854 5851 5847 5843 5839 5835 5832 5828 5824 5819 5814 5808 5800 5793 5784 5775
5860 5861 5863 5865 5864 5864 5864 5864 5864 5864 5865 5865 5866 5866 5867 5868 5868 5868 5869 5870 5870 5870 5870 5868 5866 5865 5863 5860 5856 5853 5849 5844 5840 5836 5832 5829 5825 5820 5816 5810 5804 5797 5788 5778 5766
5857 5857 5858 5860 5861 5862 5862 5862 5862 5862 5863 5863 5864 5864 5866 5866 5867 5868 5869 5870 5870 5869 5868 5867 5865 5864 5862 5859 5856 5851 5847 5843 5838 5834 5830 5827 5823 5818 5813 5807 5801 5793 5782 5770 5758
5853 5854 5853 5855 5857 5858 5859 5859 5860 5860 5860 5861 5862 5863 5864 5866 5866 5867 5869 5870 5869 5868 5867 5866 5865 5863 5861 5858 5855 5850 5846 5841 5837 5833 5829 5825 5821 5817 5811 5805 5798 5787 5776 5762 5750
5849 5850 5850 5850 5852 5854 5856 5856 5857 5857 5858 5859 5860 5862 5862 5864 5865 5867 5868 5868 5868 5867 5867 5865 5864 5862 5860 5857 5854 5849 5845 5840 5835 5832 5827 5823 5819 5814 5809 5802 5794 5783 5771 5757 5745
5845 5846 5847 5847 5847 5849 5851 5854 5855 5856 5856 5857 5857 5858 5859 5861 5863 5866 5867 5867 5867 5867 5866 5864 5864 5861 5858 5856 5853 5849 5844 5838 5833 5829 5826 5822 5817 5812 5806 5799 5790 5780 5767 5753 5741
5842 5842 5843 5844 5844 5845 5846 5849 5850 5852 5854 5854 5854 5855 5857 5858 5862 5863 5865 5866 5866 5865 5864 5864 5862 5860 5858 5856 5852 5848 5842 5837 5831 5827 5824 5820 5815 5810 5805 5797 5788 5777 5763 5749 5736
5839 5839 5839 5840 5841 5842 5842 5844 5846 5847 5849 5851 5852 5853 5854 5857 5859 5861 5863 5864 5864 5864 5863 5862 5861 5859 5857 5854 5851 5846 5840 5834 5830 5826 5822 5818 5814 5809 5803 5795 5786 5773 5759 5745 5733
5836 5835 5835 5836 5839 5838 5839 5840 5841 5843 5845 5848 5849 5851 5852 5854 5856 5858 5860 5862 5862 5862 5861 5861 5859 5858 5856 5853 5850 5845 5839 5833 5828 5825 5821 5816 5813 5807 5801 5794 5783 5770 5756 5743 5733
5833 5831 5831 5831 5832 5834 5835 5836 5837 5839 5841 5843 5845 5847 5848 5852 5854 5856 5857 5859 5860 5860 5861 5860 5858 5857 5856 5852 5849 5845 5839 5833 5827 5823 5819 5815 5812 5806 5800 5792 5781 5768 5754 5741 5731
5827 5826 5825 5826 5827 5829 5830 5831 5834 5835 5837 5839 5840 5842 5845 5847 5850 5852 5854 5857 5858 5858 5858 5858 5857 5856 5854 5851 5848 5844 5839 5833 5827 5822 5818 5813 5810 5806 5799 5791 5779 5767 5753 5740 5731
5821 5820 5819 5820 5821 5823 5825 5826 5829 5830 5832 5835 5837 5838 5840 5843 5847 5848 5850 5853 5855 5856 5856 5856 5855 5855 5853 5851 5847 5844 5839 5834 5828 5821 5817 5812 5809 5804 5797 5789 5778 5766 5753 5739 5730
5815 5814 5815 5815 5816 5817 5819 5822 5823 5826 5827 5828 5832 5835 5837 5839 5842 5845 5847 5849 5851 5853 5853 5853 5854 5853 5852 5850 5847 5843 5838 5832 5826 5820 5816 5811 5807 5803 5796 5789 5778 5766 5754 5740 5731
5810 5809 5809 5810 5810 5811 5813 5815 5820 5820 5822 5823 5826 5830 5832 5835 5838 5841 5844 5845 5847 5849 5851 5851 5851 5851 5850 5848 5846 5842 5838 5834 5827 5822 5816 5811 5808 5802 5796 5788 5778 5767 5756 5743 5733
5804 5803 5803 5803 5803 5804 5806 5811 5814 5815 5817 5818 5820 5824 5828 5830 5833 5836 5839 5841 5842 5844 5846 5848 5848 5848 5847 5846 5844 5841 5837 5833 5827 5821 5816 5810 5806 5801 5795 5788 5779 5769 5759 5748 5736
5797 5796 5797 5796 5796 5797 5798 5805 5807 5809 5811 5813 5815 5818 5821 5824 5827 5830 5835 5837 5838 5839 5842 5843 5845 5846 5845 5844 5842 5839 5836 5831 5827 5821 5815 5809 5805 5800 5795 5788 5781 5772 5763 5751 5741
5789 5790 5789 5790 5790 5790 5794 5796 5801 5801 5804 5807 5809 5812 5814 5817 5821 5825 5828 5831 5833 5834 5837 5839 5840 5841 5841 5840 5839 5836 5834 5830 5826 5822 5815 5809 5806 5799 5795 5789 5782 5775 5766 5755 5744
5782 5781 5782 5782 5784 5784 5787 5788 5790 5793 5797 5799 5803 5805 5807 5810 5814 5818 5821 5825 5828 5830 5832 5834 5836 5836 5837 5838 5836 5834 5832 5828 5824 5820 5815 5810 5805 5798 5794 5789 5784 5777 5769 5760 5749
5773 5773 5774 5774 5777 5777 5778 5779 5781 5786 5789 5791 5795 5798 5800 5803 5806 5810 5815 5818 5821 5824 5826 5827 5830 5831 5833 5832 5832 5830 5829 5826 5823 5819 5815 5810 5804 5798 5794 5790 5785 5779 5771 5763 5754
5764 5764 5766 5767 5769 5769 5769 5771 5774 5776 5781 5784 5788 5792 5793 5795 5798 5802 5807 5810 5813 5817 5819 5822 5824 5825 5826 5827 5827 5827 5826 5824 5821 5818 5814 5810 5803 5798 5793 5789 5785 5780 5774 5766 5758
5754 5755 5757 5758 5759 5760 5760 5763 5765 5767 5772 5775 5781 5783 5785 5787 5790 5793 5797 5801 5805 5809 5812 5816 5818 5819 5820 5822 5822 5823 5822 5821 5818 5816 5812 5808 5803 5797 5792 5788 5784 5780 5775 5768 5761
5745 5746 5747 5750 5751 5752 5752 5754 5755 5756 5760 5765 5770 5774 5777 5781 5781 5785 5788 5793 5797 5801 5804 5808 5812 5813 5815 5815 5817 5819 5817 5817 5815 5813 5810 5806 5803 5797 5791 5787 5783 5780 5775 5770 5763